Weather in Serang

Indonesia     6°07′09″S   106°10′38″E
temp.,
°C
wind,
m/s
gust,
m/s
humid.,
%
clouds,
%
prec.,
mm/h
press.,
hPa
HPBL,
m
29 july, thu
thu2901:00+26sse11716 0.0 1011164
04:00+24ssw227637 0.0 1011121
07:00+25s227838 0.0 1012122
10:00+29ne11586 0.0 1012704
13:00+30n3258100 0.0 10101053
16:00+29nnw336199 0.0 1009601
19:00+27wnw336768 0.0 1010209
22:00+26s117065 0.0 1012180
30 july, fri
fri3001:00+26e12755 0.0 1011256
04:00+25w017817 0.0 1011237
07:00+25s228116 0.1 1012163
10:00+29se11645 0.0 1013784
13:00+30n22571 0.0 10101096
16:00+29nnw55654 0.0 1010569
19:00+28w23725 0.0 1011192
22:00+26sse34795 0.0 1013183
31 july, sat
sat3101:00+25sse33825 0.1 1011141
04:00+25se23832 0.3 1010188
07:00+26sse23815 0.3 1012233
10:00+29ene226713 0.4 1012767
13:00+30nne436226 1.4 10101009
16:00+29n32647 0.1 1009747
19:00+27nw227212 0.1 1011204
22:00+27nw01748 0.0 1012212
1 august, sun
sun101:00+26ssw117785 0.0 1011170
04:00+25ssw228279 0.0 1010119
07:00+26sse118161 0.1 1011125
10:00+29e116482 0.0 1012736
13:00+30n426268 0.3 10091069
16:00+29nw346570 0.5 1008641
19:00+28nw2372100 0.6 1009210
22:00+27ene1277100 0.8 1011105
2 august, mon
mon201:00+25ese1184100 3.2 100943
04:00+24sse2289100 0.6 1009118
07:00+25s2284100 1.3 1010114
10:00+29e1166100 0.2 1011641
13:00+30nne3362100 0.4 1008988
16:00+29nne3264100 0.1 1007715
19:00+27nne227262 0.1 1009242
22:00+27e117542 0.2 1011128